Regional Weather Roundup
Issued by NWS

Home | Current Version | Previous Version | Text Only | Print | Product List | Glossary Off
Versions: 1 2 3 4 5 6 7 8 9 10 11 12 13 14 15 16 17 18 19 20 21 22 23 24 25 26 27 28

000
ASUS45 KSLC 270710
RWRUT

UTAH REGIONAL WEATHER ROUNDUP
NATIONAL WEATHER SERVICE SALT LAKE CITY UT
1200 AM MST MON FEB 27 2017

UTZ001>011-023>025-270800-

NORTHERN UTAH

CITY           SKY/WX    TMP DP  RH WIND       PRES   REMARKS
BRIGHAM CITY     N/A     37  23  58 CALM      29.64F
HILL AFB       CLOUDY    35  21  58 S10       29.60F WCI  27
LOGAN          LGT SNOW  31  27  85 E5        29.63F FOG     WCI  26
OGDEN          CLOUDY    36  21  54 W7        29.61S WCI  30
SALT LAKE CITY CLOUDY    40  21  46 S18       29.60F WCI  31
TOOELE VALLEY  CLOUDY    41  23  48 S23       29.60F
WENDOVER       CLOUDY    36  27  69 NW8       29.64R WCI  29
HEBER CITY     CLOUDY    36  18  48 S5        29.63F WCI  32
WEST JORDAN    CLOUDY    39  29  67 SE14      29.62F WCI  31

$$

UTZ011>015-024>027-270800-

CENTRAL/NORTHEAST UTAH

CITY           SKY/WX    TMP DP  RH WIND       PRES   REMARKS
PROVO AIRPORT  CLOUDY    36  22  56 E6        29.67F WCI  31
MOAB/CANYONLAN CLOUDY    37  15  40 S8        29.73F WCI  31
DELTA          MOCLDY    34  23  64 S18       29.69F WCI  23
PRICE          PTCLDY    27  20  75 CALM      29.70F
ROOSEVELT      CLOUDY    25  19  80 CALM      29.76F
VERNAL         CLOUDY    22  15  75 W3        29.74F

$$

UTZ013>016-019>022-027-270800-

SOUTHERN UTAH

CITY           SKY/WX    TMP DP  RH WIND       PRES   REMARKS
BRYCE CANYON   CLOUDY    28  19  69 S9G21     29.77F WCI  19
CEDAR CITY     CLOUDY    37  23  56 S20G35    29.71F WCI  27
MILFORD        CLOUDY    34  23  64 SW9       29.72S WCI  27
ST GEORGE      CLOUDY    49  29  46 S8        29.82R
HANKSVILLE     PTCLDY    37  18  44 S5        29.75S WCI  34
BLANDING       CLOUDY    32  19  58 S5        29.89S WCI  27

$$

REGIONAL REPORTS     COLORADO/ARIZONA

CITY           SKY/WX    TMP DP  RH WIND       PRES   REMARKS
CRAIG, CO      CLOUDY    22   7  52 VRB3      29.74F
GRAND JUNCTION CLOUDY    37  13  37 SE13      29.77F WCI  29
RIFLE, CO      CLOUDY    29  14  53 VRB5      29.77F WCI  24
MONTROSE, CO   CLOUDY    31  11  43 E10       29.84F WCI  22
CORTEZ, CO     CLOUDY    36  16  44 S8        29.86F WCI  30
COLORADO CITY  CLOUDY    41  28  60 CALM      29.85S
PAGE, AZ       CLOUDY    45  20  36 S12       29.79F
GRAND CANYON   CLOUDY    32  26  78 SW13      29.87F WCI  22
KINGMAN, AZ    PTCLDY    41  20  43 S10       29.85F
FLAGSTAFF, AZ  CLOUDY    30  23  75 SW12G24   29.88F WCI  20

$$

REGIONAL REPORTS    NEVADA/IDAHO/WYOMING

CITY           SKY/WX    TMP DP  RH WIND       PRES   REMARKS
LAS VEGAS, NV  MOCLDY    52  32  46 S16G25    29.78R
ELY, NY        MOCLDY    30  19  63 S24G31    29.65S WCI  16
ELKO, NV       LGT SNOW  28  26  92 S6        29.65F FOG     WCI  22
POCATELLO, ID  LGT SNOW  27  25  92 SW9       29.66R FOG     WCI  18
BURLEY, ID     LGT SNOW  29  23  78 S8        29.64F WCI  21
FORT BRIDGER,  CLOUDY    19   3  49 CALM      29.64F
EVANSTON, WY   CLOUDY    19  16  88 SE6       29.58F WCI  11
ROCK SPRINGS,  CLOUDY    15   5  64 E3        29.63F

$$




USA.gov is the U.S. government's official web portal to all federal, state and local government web resources and services.